Weather History for Portage Glacier, AK

Change the Weather History Date:

Thursday, February 14, 2013

  Actual Average Record
Temperature  
Mean Temperature 34 °F -  
Max Temperature 37 °F - - ()
Min Temperature 30 °F - - ()
Degree Days  
Heating Degree Days 32    
Moisture  
Dew Point 32 °F    
Average Humidity 92    
Maximum Humidity 100    
Minimum Humidity 78    
Precipitation  
Precipitation 1.18 in - - ()
Sea Level Pressure  
Sea Level Pressure 29.41 in    
Wind  
Wind Speed 16 mph (SE)    
Max Wind Speed 22 mph    
Max Gust Speed 48 mph    
Visibility 4 miles    
Events Rain , Snow    
T = Trace of Precipitation, MM = Missing Value Source: NWS Daily Summary

Daily Weather History Graph

Daily Weather History Graph

Search for Another Location

Airport:

Trip Planner

Search our weather history database for the weather conditions in past years. The results will help you decide how hot, cold, wet, or windy it might be!

Date:

Astronomy

Feb. 14, 2013 Rise Set
Actual Time 8:37 AM AKST 5:42 PM AKST
Civil Twilight 7:52 AM AKST 6:27 PM AKST
Nautical Twilight 7:02 AM AKST 7:17 PM AKST
Astronomical Twilight 6:13 AM AKST 8:07 PM AKST
Moon 9:12 AM AKST (2/14) No Moon Set
Length of Visible Light 10h 35m
Length of Day
9h 04m
Waxing Crescent, 23% of the Moon is Illuminated
Feb 14
Waxing Crescent
Feb 17
First Quarter
Feb 25
Full
Mar 4
Last Quarter
Mar 11
New

Hourly Weather History & Observations

Time (AKST) Temp. Windchill Dew Point Humidity Pressure Visibility Wind Dir Wind Speed Gust Speed Precip Events Conditions
12:34 AM 35.1 °F 23.5 °F 28.9 °F 78% 29.72 in 1.5 mi East 21.9 mph 48.3 mph 0.02 in Snow Light Snow
12:53 AM 35.1 °F 23.5 °F 28.9 °F 78% 29.72 in 1.5 mi SE 21.9 mph 44.9 mph 0.04 in Snow Light Snow
1:16 AM 34.0 °F 22.7 °F 30.0 °F 85% 29.71 in 2.0 mi ESE 19.6 mph 46.0 mph 0.02 in Snow Light Snow
1:36 AM 34.0 °F 22.7 °F 30.0 °F 85% 29.71 in 1.8 mi East 19.6 mph 34.5 mph 0.03 in Snow Light Snow
1:53 AM 35.1 °F 23.5 °F 30.0 °F 82% 29.72 in 1.5 mi ESE 21.9 mph 43.7 mph 0.04 in Snow Light Snow
2:21 AM 34.0 °F 23.4 °F 30.9 °F 89% 29.70 in 1.5 mi ESE 17.3 mph 38.0 mph 0.02 in Snow Light Snow
2:37 AM 34.0 °F 22.4 °F 30.0 °F 85% 29.70 in 2.0 mi ESE 20.7 mph 44.9 mph 0.03 in Snow Light Snow
6:53 AM 34.0 °F 24.2 °F 32.0 °F 92% 29.52 in 2.5 mi SE 15.0 mph 27.6 mph 0.04 in Snow Light Snow
7:12 AM 34.0 °F 23.8 °F 32.0 °F 92% 29.49 in 3.0 mi ESE 16.1 mph 26.5 mph 0.02 in Snow Light Snow
7:19 AM 34.0 °F 25.0 °F 32.0 °F 92% 29.49 in 2.0 mi SE 12.7 mph 23.0 mph 0.03 in Snow Light Snow
7:53 AM 34.0 °F 26.0 °F 32.0 °F 92% 29.45 in 2.0 mi SSE 10.4 mph 25.3 mph 0.08 in Snow Light Snow
8:21 AM 36.0 °F 26.3 °F 33.1 °F 89% 29.42 in 3.0 mi ESE 16.1 mph 34.5 mph 0.04 in Rain Rain
8:37 AM 36.0 °F 24.7 °F 32.0 °F 86% 29.39 in 2.5 mi ESE 21.9 mph 35.7 mph 0.07 in Rain Rain
8:49 AM 35.6 °F 24.2 °F 33.8 °F 93% 29.37 in 4.0 mi East 21.9 mph 36.8 mph 0.09 in Rain Rain
8:53 AM 36.0 °F 26.0 °F 33.1 °F 89% 29.36 in 4.0 mi SE 17.3 mph 36.8 mph 0.10 in Rain Rain
9:27 AM 37.0 °F 29.3 °F 33.1 °F 86% 29.32 in 2.0 mi East 11.5 mph 48.3 mph 0.07 in Rain Rain
9:44 AM 37.0 °F 27.0 °F 33.1 °F 86% 29.30 in 1.5 mi ESE 18.4 mph 41.4 mph 0.11 in Rain Rain
9:53 AM 36.0 °F 25.6 °F 33.1 °F 89% 29.30 in 1.8 mi ESE 18.4 mph 42.6 mph 0.14 in Rain Rain
10:03 AM 36.0 °F - 33.1 °F 89% 29.27 in 2.0 mi North - - 0.02 in Rain Rain
10:16 AM 37.0 °F 27.4 °F 33.1 °F 86% 29.26 in 1.8 mi SE 17.3 mph 36.8 mph 0.06 in Rain Rain
10:40 AM 35.1 °F 24.1 °F 33.1 °F 92% 29.26 in 2.0 mi ESE 19.6 mph 35.7 mph 0.13 in Rain Rain
10:53 AM 36.0 °F 25.0 °F 34.0 °F 93% 29.24 in 2.0 mi SE 20.7 mph 38.0 mph 0.17 in Rain Rain
11:53 AM 35.1 °F 25.5 °F 33.1 °F 92% 29.21 in 2.5 mi SE 15.0 mph 28.8 mph 0.16 in Rain Rain
12:53 PM 35.1 °F 26.4 °F 33.1 °F 92% 29.20 in 1.8 mi SE 12.7 mph 28.8 mph 0.14 in Rain Rain
1:13 PM 35.1 °F 26.9 °F 34.0 °F 96% 29.19 in 2.0 mi SE 11.5 mph 25.3 mph 0.03 in Rain Light Rain
1:50 PM 33.8 °F 27.7 °F 33.8 °F 100% 29.20 in 4.0 mi Variable 6.9 mph 19.6 mph 0.06 in Rain Light Rain
1:53 PM 34.0 °F 26.0 °F 34.0 °F 100% 29.21 in 4.0 mi SSE 10.4 mph 18.4 mph 0.07 in Rain Light Rain
2:53 PM 34.0 °F 28.0 °F 34.0 °F 100% 29.23 in 3.0 mi SSE 6.9 mph - 0.09 in Rain Rain
3:53 PM 35.1 °F 27.9 °F 33.1 °F 92% 29.25 in 7.0 mi SSE 9.2 mph - 0.05 in Rain Light Rain
4:53 PM 35.1 °F 32.2 °F 34.0 °F 96% 29.26 in 9.0 mi Variable 3.5 mph - 0.02 in Rain Light Rain
5:53 PM 35.1 °F 30.1 °F 33.1 °F 92% 29.29 in 10.0 mi Variable 5.8 mph - 0.01 in   Overcast
6:53 PM 35.1 °F 30.1 °F 33.1 °F 92% 29.33 in 10.0 mi East 5.8 mph - N/A   Overcast
7:53 PM 34.0 °F 26.6 °F 33.1 °F 96% 29.36 in 10.0 mi East 9.2 mph - N/A   Overcast
8:53 PM 36.0 °F 30.3 °F 33.1 °F 89% 29.39 in 10.0 mi East 6.9 mph - N/A   Overcast
9:53 PM 33.1 °F 28.7 °F 33.1 °F 100% 29.42 in 10.0 mi WNW 4.6 mph - 0.00 in Rain Light Rain
10:34 PM 32.0 °F 25.6 °F 32.0 °F 100% 29.44 in 4.0 mi WNW 6.9 mph - 0.00 in Snow Light Snow
10:42 PM 30.9 °F 25.2 °F 30.9 °F 100% 29.45 in 2.0 mi WNW 5.8 mph - 0.00 in Snow Light Snow
10:53 PM 30.9 °F 25.2 °F 30.9 °F 100% 29.46 in 2.0 mi West 5.8 mph - 0.00 in Snow Light Snow
11:04 PM 30.9 °F 25.2 °F 30.9 °F 100% 29.46 in 1.8 mi West 5.8 mph - 0.01 in Snow Light Snow
11:20 PM 30.9 °F 25.2 °F 30.9 °F 100% 29.47 in 2.0 mi WNW 5.8 mph - 0.01 in Snow Light Snow
11:35 PM 30.9 °F 25.2 °F 30.9 °F 100% 29.48 in 1.5 mi WNW 5.8 mph - 0.02 in Snow Light Snow
11:53 PM 30.9 °F 24.3 °F 30.9 °F 100% 29.49 in 1.0 mi West 6.9 mph - 0.03 in Snow Light Snow